343P/NEAT-LONEOS (2017)

Japanese version
Home page
Updated on December 31, 2016

---------------------------------------------------------------------

* Profile

Designation 343P/2016 P3
Recovery Date August 12, 2016
Magnitude 19.9 mag
Recoverer Pan-STARRS 1 telescope (Haleakala)

* Pictures

* Orbital Elements

Epoch 2017 Feb. 16.0 TT = JDT 2457800.5
T 2017 Jan. 27.72337 TT                                 MPCW
q   2.2802119            (2000.0)            P               Q
n   0.07692078     Peri.  137.54270     +0.81817698     -0.56708647
a   5.4757078      Node   257.24229     +0.49795301     +0.78136303
e   0.5835768      Incl.    5.58177     +0.28745302     +0.26054703
P  12.81
From 191 observations 2003 Sept. 18-2016 Nov. 3, mean residual 0".5.

* Magnitudes Graph

        m1 = 12.5 + 5 log d + 10.0 log r

---------------------------------------------------------------------

The orbital elements are published on M.P.E.C. 2016-V116.
The magnitudes graphs are made with Comet for Windows.

---------------------------------------------------------------------

Copyright(C) Seiichi Yoshida (comet@aerith.net). All rights reserved.